[[{"header":{"parameterUnit":"m.s-1","parameterCategory":1,"la1":30.2991,"la2":30.254,"lo1":-89.0895,"lo2":-89.0444,"dy":0.0017,"dx":0.0017,"nx":28,"ny":28,"refTime":"2024-06-20T03:00:00:Z","depth":0,"parameterNumber":2,"parameterNumberName":"U-component_of_WINDS"},"data":[0,0,0,0,0,0,0,0,0,0,0,0,0,0,0,0,0,0,0,0,0,0,0,0,0,0,0,0,0,0,0,0,0,0,0,0,0,0,0,0,0,0,0,0,0,0,0,0,0,0,0,0,0,0,0,0,0,0,-1.5662,-1.5662,0,-1.5608,-1.5608,-1.5607,-1.5504,-1.5502,-1.55,-1.5498,-1.5445,-1.5446,-1.5446,0,0,0,0,0,0,0,0,0,0,0,0,0,-1.5679,-1.5679,-1.5662,-1.5662,-1.5661,-1.5608,-1.5607,-1.5607,-1.5504,-1.5502,-1.5499,-1.5497,-1.5445,-1.5446,-1.5446,0,0,0,0,0,0,0,0,0,0,0,0,0,-1.5653,-1.5679,-1.5662,-1.5603,-1.5597,-1.5608,-1.5607,-1.5607,-1.5505,-1.5502,-1.5499,-1.5496,-1.5445,-1.5446,-1.5446,-1.5511,0,0,-1.5448,-1.5449,0,0,0,0,0,0,0,0,-1.5654,-1.5652,-1.5613,-1.5607,-1.5601,-1.556,-1.5594,-1.5575,-1.5506,-1.554,-1.5498,-1.5494,-1.5486,-1.5483,-1.548,-1.5509,-1.5506,-1.5448,-1.5449,-1.5449,-1.5449,0,0,0,0,0,0,0,-1.5656,-1.5654,-1.5641,-1.5612,-1.5605,-1.558,-1.5573,-1.559,-1.5531,-1.5537,-1.5529,-1.5524,-1.5482,-1.5479,-1.5478,-1.5505,-1.5448,-1.5449,-1.545,-1.545,-1.5584,-1.5587,0,0,0,0,0,0,-1.5666,-1.5656,-1.5643,-1.5639,-1.5621,-1.5582,-1.5574,-1.5576,-1.553,-1.552,-1.5527,-1.552,-1.5479,-1.5477,-1.5475,-1.5547,-1.5449,-1.545,-1.545,-1.5581,-1.5585,-1.5588,0,0,0,0,0,0,-1.5667,-1.5666,-1.5645,-1.5646,-1.5641,-1.5585,-1.5588,-1.5577,-1.5573,-1.5522,-1.5512,-1.5534,-1.5477,-1.5474,-1.5502,-1.5544,-1.545,-1.5451,-1.5577,-1.5582,-1.5586,-1.5693,0,0,0,0,0,0,-1.5668,-1.5667,-1.5691,-1.5647,-1.5641,-1.5673,-1.559,-1.5578,-1.5575,-1.5565,-1.5527,-1.5518,-1.5474,-1.5502,-1.5503,-1.5543,-1.5451,-1.5573,-1.5579,-1.5585,-1.5685,-1.57,-1.5713,0,0,0,0,0,-1.5669,-1.5724,-1.5692,-1.5691,-1.567,-1.5675,-1.5672,-1.562,-1.5578,-1.5602,-1.5569,-1.5519,-1.554,-1.5506,-1.5506,-1.5547,-1.557,-1.5578,-1.5584,-1.5679,-1.5697,-1.5713,0,0,0,0,0,0,-1.5775,-1.5717,-1.5682,-1.5723,-1.5705,-1.5658,-1.5686,-1.5642,-1.5635,-1.5627,-1.5563,-1.5556,-1.5592,-1.5572,-1.5536,-1.5607,-1.5547,-1.5554,-1.5619,-1.5636,-1.565,-1.5654,-1.5452,0,0,0,0,0,-1.5803,-1.5811,-1.5761,-1.5802,-1.5795,-1.5742,-1.5743,-1.5704,-1.5683,-1.5675,-1.5644,-1.5626,-1.5628,-1.5631,-1.563,-1.5682,-1.5672,-1.571,-1.5724,-1.5736,-1.5744,-1.5769,-1.5785,-1.5611,-1.5611,-1.5611,0,0,-1.5861,-1.583,-1.584,-1.5823,-1.5804,-1.5815,-1.5736,-1.5751,-1.5759,-1.5677,-1.5701,-1.5679,-1.5654,-1.5694,-1.571,-1.5679,-1.5789,-1.5745,-1.5755,-1.5756,-1.5778,-1.5794,-1.5809,-1.5616,-1.5615,-1.5614,0,0,-1.5972,-1.595,-1.5982,-1.5965,-1.5937,-1.5901,-1.5909,-1.5869,-1.585,-1.5873,-1.5812,-1.582,-1.5826,-1.581,-1.5803,-1.5909,-1.5862,-1.591,-1.5984,-1.6009,-1.6023,-1.6035,-1.6072,-1.6086,-1.5918,-1.5918,-1.5918,0,-1.6049,-1.6062,-1.6005,-1.6023,-1.6017,-1.5943,-1.5975,-1.5961,-1.5935,-1.5933,-1.5898,-1.5902,-1.5881,-1.5916,-1.5941,-1.5939,-1.5945,-1.5914,-1.6026,-1.6037,-1.6047,-1.6082,-1.6096,-1.5924,-1.5923,-1.5923,-1.5922,0,-1.6157,-1.6167,-1.6196,-1.6171,-1.6169,-1.6195,-1.6142,-1.6146,-1.6108,-1.6077,-1.6101,-1.6072,-1.6064,-1.607,-1.6033,-1.61,-1.6081,-1.6037,-1.5975,-1.6071,-1.6102,-1.6115,-1.5932,-1.593,-1.5929,-1.5927,0,0,-1.6333,-1.6276,-1.6288,-1.6275,-1.6239,-1.6246,-1.6268,-1.6259,-1.6264,-1.6248,-1.6265,-1.6271,-1.623,-1.6222,-1.6183,-1.6205,-1.629,-1.6158,-1.6157,-1.6183,-1.6361,-1.6394,-1.641,-1.6259,-1.6261,-1.6263,-1.6362,0,-1.6436,-1.647,-1.6419,-1.6464,-1.6473,-1.6402,-1.6421,-1.6402,-1.6373,-1.6376,-1.6344,-1.6349,-1.6295,-1.6289,-1.6308,-1.6276,-1.6325,-1.6268,-1.6274,-1.6275,-1.6282,-1.6426,-1.6462,-1.6557,-1.6374,-1.6376,-1.6378,0,-1.6561,-1.6551,-1.6597,-1.6557,-1.6558,-1.6576,-1.6564,-1.6568,-1.6544,-1.6521,-1.6512,-1.6465,-1.6484,-1.6425,-1.645,-1.6413,-1.6412,-1.6397,-1.6399,-1.6398,-1.6332,-1.6428,-1.6586,-1.6601,-1.6397,-1.6395,-1.6394,0,-1.6685,-1.6682,-1.6709,-1.6701,-1.6655,-1.6669,-1.6651,-1.6624,-1.6621,-1.6611,-1.6608,-1.6601,-1.6596,-1.6591,-1.6544,-1.6505,-1.6575,-1.6511,-1.6557,-1.6558,-1.6574,-1.6574,-1.6734,-1.6575,-1.6575,-1.6575,-1.6575,0,-1.6805,-1.6836,-1.6764,-1.6781,-1.6813,-1.6754,-1.6788,-1.6763,-1.6739,-1.675,-1.6689,-1.67,-1.6637,-1.6642,-1.6605,-1.6631,-1.663,-1.6612,-1.6602,-1.6618,-1.662,-1.6616,-1.6608,-1.6578,-1.6578,-1.6577,-1.6576,0,-1.6949,-1.6902,-1.6926,-1.6881,-1.687,-1.6896,-1.6857,-1.687,-1.6837,-1.6852,-1.6852,-1.68,-1.6802,-1.6754,-1.6747,-1.6722,-1.6765,-1.6743,-1.6773,-1.6766,-1.6814,-1.681,-1.6977,-1.6996,-1.6826,-1.6827,-1.6829,0,-1.7029,-1.7051,-1.7007,-1.7009,-1.6994,-1.6998,-1.6995,-1.6938,-1.6938,-1.6912,-1.6929,-1.6926,-1.692,-1.6927,-1.6889,-1.6884,-1.6861,-1.692,-1.686,-1.6874,-1.6861,-1.686,-1.6862,-1.6933,-1.6935,-1.6936,-1.6938,0,-1.7175,-1.7151,-1.7148,-1.7138,-1.7135,-1.7125,-1.711,-1.7116,-1.7053,-1.7056,-1.7057,-1.7053,-1.7045,-1.7043,-1.703,-1.7011,-1.6965,-1.6957,-1.6967,-1.6983,-1.6999,-1.6991,-1.6807,-1.6953,-1.6952,-1.6951,-1.695,-1.6949,-1.7289,-1.7305,-1.7276,-1.7275,-1.7258,-1.7246,-1.7256,-1.7224,-1.7223,-1.7212,-1.7179,-1.7185,-1.716,-1.7137,-1.7123,-1.7127,-1.7098,-1.7113,-1.7117,-1.7121,-1.713,-1.6999,-1.7125,-1.7124,-1.7124,-1.7124,-1.7123,0,-1.7432,-1.741,-1.741,-1.739,-1.739,-1.7345,-1.7326,-1.7329,-1.7335,-1.7315,-1.7311,-1.7312,-1.7309,-1.7271,-1.7264,-1.7275,-1.7253,-1.7275,-1.7274,-1.727,-1.7157,-1.7149,-1.7292,-1.7292,-1.7292,-1.7292,-1.7292,-1.7292,-1.7506,-1.7531,-1.7503,-1.7518,-1.7495,-1.7501,-1.7494,-1.7482,-1.7466,-1.7469,-1.7466,-1.7441,-1.7414,-1.7404,-1.74,-1.7388,-1.7388,-1.7417,-1.7399,-1.7294,-1.7278,-1.7262,-1.7254,-1.7418,-1.7418,-1.7512,-1.7512,-1.7513]},{"header":{"parameterUnit":"m.s-1","parameterCategory":1,"la1":30.2991,"la2":30.254,"lo1":-89.0895,"lo2":-89.0444,"dy":0.0017,"dx":0.0017,"nx":28,"ny":28,"refTime":"2024-06-20T03:00:00:Z","depth":0,"parameterNumber":3,"parameterNumberName":"V-component_of_WINDS"},"data":[0,0,0,0,0,0,0,0,0,0,0,0,0,0,0,0,0,0,0,0,0,0,0,0,0,0,0,0,0,0,0,0,0,0,0,0,0,0,0,0,0,0,0,0,0,0,0,0,0,0,0,0,0,0,0,0,0,0,1.8637,1.8637,0,1.8685,1.8686,1.8686,1.8696,1.8696,1.8695,1.8695,1.8741,1.8742,1.8744,0,0,0,0,0,0,0,0,0,0,0,0,0,1.855,1.8552,1.8637,1.8638,1.8638,1.8685,1.8686,1.8686,1.8696,1.8696,1.8695,1.8695,1.874,1.8742,1.8744,0,0,0,0,0,0,0,0,0,0,0,0,0,1.8592,1.8552,1.8637,1.8649,1.865,1.8685,1.8686,1.8687,1.8696,1.8696,1.8695,1.8695,1.874,1.8742,1.8744,1.8769,0,0,1.8751,1.8752,0,0,0,0,0,0,0,0,1.8589,1.8595,1.8646,1.8648,1.865,1.8684,1.8672,1.8714,1.8696,1.8679,1.8695,1.8694,1.8722,1.8726,1.8736,1.8771,1.8773,1.8751,1.8753,1.8754,1.8754,0,0,0,0,0,0,0,1.8586,1.8593,1.8656,1.8647,1.8649,1.8651,1.8656,1.868,1.8703,1.868,1.8681,1.8687,1.8723,1.8734,1.8737,1.8774,1.8751,1.8753,1.8755,1.8756,1.8832,1.8833,0,0,0,0,0,0,1.8582,1.859,1.8654,1.8657,1.8618,1.8653,1.8659,1.8674,1.8702,1.8706,1.8687,1.8687,1.873,1.8734,1.8739,1.877,1.8754,1.8756,1.8757,1.8832,1.8832,1.8833,0,0,0,0,0,0,1.858,1.8588,1.8652,1.8624,1.8633,1.8655,1.8671,1.8675,1.8686,1.8708,1.8711,1.8694,1.873,1.8735,1.8762,1.8771,1.8757,1.8759,1.8831,1.8832,1.8833,1.8832,0,0,0,0,0,0,1.8578,1.8587,1.8597,1.8624,1.8634,1.8676,1.8672,1.8676,1.869,1.869,1.8715,1.8719,1.873,1.8758,1.8764,1.8774,1.8761,1.883,1.8831,1.8833,1.8831,1.8833,1.8834,0,0,0,0,0,1.8574,1.8594,1.8598,1.8605,1.8648,1.8676,1.8682,1.8695,1.8691,1.8701,1.8715,1.8718,1.877,1.8761,1.8768,1.8779,1.883,1.8831,1.8832,1.8831,1.8833,1.8834,0,0,0,0,0,0,1.8566,1.8598,1.8602,1.8632,1.8652,1.8678,1.8691,1.8696,1.8716,1.8715,1.873,1.8735,1.8761,1.8772,1.8762,1.8804,1.8799,1.8802,1.8796,1.8798,1.8799,1.8795,1.8763,0,0,0,0,0,1.8569,1.859,1.8616,1.864,1.865,1.8669,1.8681,1.869,1.871,1.8718,1.8734,1.8753,1.8773,1.8786,1.8806,1.8834,1.8839,1.8844,1.8846,1.8847,1.8849,1.8864,1.8866,1.8838,1.8838,1.8838,0,0,1.8572,1.8592,1.8605,1.8639,1.8655,1.8676,1.8675,1.8698,1.8713,1.8721,1.8747,1.876,1.8781,1.8808,1.8821,1.8819,1.8858,1.8849,1.885,1.8851,1.8866,1.8868,1.8871,1.8839,1.8839,1.8839,0,0,1.859,1.8607,1.8629,1.8645,1.867,1.8683,1.8688,1.8714,1.8723,1.875,1.8757,1.8775,1.881,1.8825,1.8837,1.8861,1.8864,1.8867,1.8874,1.8889,1.8891,1.8893,1.8901,1.8904,1.8869,1.8869,1.8869,0,1.8591,1.8624,1.8639,1.8661,1.8676,1.8686,1.8707,1.8722,1.8751,1.8761,1.8758,1.8803,1.8818,1.8848,1.8854,1.8864,1.887,1.8864,1.889,1.8892,1.8894,1.8902,1.8905,1.8869,1.8869,1.8869,1.8869,0,1.8623,1.8646,1.866,1.869,1.8706,1.8728,1.8746,1.876,1.8767,1.878,1.8807,1.8826,1.885,1.8858,1.8864,1.8889,1.8887,1.8887,1.8882,1.8897,1.8904,1.8907,1.887,1.887,1.887,1.887,0,0,1.8636,1.8675,1.868,1.8694,1.8722,1.874,1.8761,1.8786,1.8798,1.8818,1.8836,1.8866,1.8866,1.888,1.8889,1.8902,1.8919,1.89,1.8901,1.8902,1.8946,1.8945,1.8949,1.8922,1.8922,1.8923,1.8944,0,1.8656,1.8697,1.8712,1.8744,1.8765,1.8775,1.8794,1.8813,1.8826,1.8844,1.8858,1.8879,1.8878,1.8887,1.89,1.8914,1.8928,1.8913,1.8937,1.8938,1.8931,1.8953,1.8952,1.8971,1.8947,1.8948,1.8948,0,1.8685,1.8707,1.8742,1.8769,1.8778,1.8795,1.8819,1.8837,1.8859,1.8867,1.8883,1.8891,1.8913,1.8908,1.8938,1.8927,1.8938,1.8947,1.8948,1.895,1.8943,1.8954,1.8978,1.898,1.8953,1.8953,1.8952,0,1.869,1.8728,1.8755,1.8766,1.8798,1.8809,1.8823,1.8844,1.8858,1.8878,1.8888,1.891,1.8922,1.8939,1.8952,1.8947,1.8981,1.8977,1.8988,1.8987,1.8993,1.8993,1.9018,1.9002,1.9002,1.9002,1.9002,0,1.8711,1.8731,1.8757,1.8773,1.8797,1.8813,1.8836,1.885,1.8869,1.8887,1.8897,1.8913,1.893,1.8949,1.8959,1.8983,1.8988,1.8995,1.8997,1.8993,1.8992,1.9,1.8998,1.9003,1.9003,1.9002,1.9002,0,1.872,1.8738,1.8767,1.8795,1.8802,1.8818,1.8842,1.8857,1.8871,1.8893,1.8899,1.892,1.8942,1.8958,1.8986,1.8994,1.9018,1.9021,1.9011,1.9012,1.9022,1.902,1.9052,1.9057,1.9038,1.9039,1.9039,0,1.8731,1.8748,1.8778,1.8791,1.8805,1.8826,1.8841,1.8858,1.8873,1.8899,1.8911,1.8934,1.8954,1.8989,1.9005,1.9027,1.903,1.904,1.9033,1.9029,1.9029,1.9028,1.9029,1.904,1.904,1.904,1.904,0,1.8749,1.8758,1.8779,1.8804,1.8822,1.8842,1.8862,1.8872,1.8892,1.8908,1.8931,1.8947,1.8976,1.8999,1.9022,1.9035,1.9041,1.9043,1.9046,1.9042,1.9035,1.9038,1.9013,1.9041,1.9041,1.9041,1.9041,1.9041,1.8759,1.8775,1.8798,1.8822,1.8839,1.8858,1.8873,1.889,1.891,1.8936,1.8945,1.8969,1.899,1.9022,1.9035,1.9054,1.9053,1.9058,1.906,1.906,1.906,1.9033,1.9058,1.9058,1.9058,1.9058,1.9058,0,1.8777,1.8794,1.8815,1.8844,1.8862,1.8868,1.889,1.8905,1.8926,1.8946,1.8966,1.8992,1.9015,1.9034,1.9056,1.9068,1.9071,1.9073,1.9072,1.9074,1.906,1.9054,1.907,1.907,1.907,1.907,1.907,1.907,1.8789,1.8815,1.8826,1.886,1.8876,1.8901,1.8913,1.893,1.8946,1.8976,1.8995,1.9008,1.9027,1.9052,1.9072,1.9077,1.9085,1.9086,1.9091,1.9077,1.9075,1.9074,1.9069,1.9088,1.9088,1.9104,1.9105,1.9105]}]]